Погода в Нанди

Фиджи     17°46′29″S   177°25′57″E
темп.,
°C
ветер,
м/с
пор.,
м/с
влажн.,
%
обл.,
%
осадки,
мм/ч
давл.,
гПа
погр.,
м
21 апреля, ср
ср2100:00+22вюв119620 0.1 101539
03:00+21вюв129630 0.0 101345
06:00+21в11955 0.0 101434
09:00+27св117450 0.0 1015394
12:00+30зсз225755 0.0 10131499
15:00+28з227151 0.1 1011738
18:00+24ююз119014 0.8 101260
21:00+22в129712 2.6 101447
22 апреля, чт
чт2200:00+22всв11979 2.9 101435
03:00+21вюв129725 0.0 101345
06:00+21в229714 0.0 101349
09:00+26в11725 0.0 1014343
12:00+31зсз2250100 0.0 10121494
15:00+29зсз2259100 0.0 1010952
18:00+23з11870 0.0 101157
21:00+22вюв11925 0.0 101355
23 апреля, пт
пт2300:00+21в11933 0.0 101339
03:00+21вюв22920 0.0 101246
06:00+21вюв11925 0.0 101236
09:00+28ююв01665 0.0 1014487
12:00+31зсз235358 0.0 10121602
15:00+27з237854 0.9 1011510
18:00+24ссз11885 1.5 101131
21:00+23вюв11949 0.0 101334
24 апреля, сб
сб2400:00+22в1195100 0.0 101341
03:00+22в119465 0.0 101236
06:00+21вюв11935 0.0 101336
09:00+27в116733 0.0 1014430
12:00+31з235233 0.0 10121628
15:00+28зсз237374 0.1 1011654
18:00+24сз119121 1.1 101244
21:00+23в11959 0.1 101445
25 апреля, вс
вс2500:00+22вюв119613 0.3 101335
03:00+21вюв119610 0.0 101235
06:00+21вюв11953 0.0 101338
09:00+27в11711 0.0 1014400
12:00+31зсз225425 0.0 10121548
15:00+27з238068 0.5 1010594
18:00+23св0094100 2.1 101140
21:00+22в1196100 0.4 101338